Flag for Israel

Past Weather in Tel Aviv, Israel — Yesterday and Last 2 Weeks

Now
88 °F

Passing clouds.


Feels Like: 96 °F
Forecast: 89 / 79 °F
Wind: 12 mph from Northwest

Location: Ben Gurion International Airport
Current Time: Sep 29, 2020 at 3:03:49 pm
Latest Report: Sep 29, 2020 at 2:20 pm
Visibility: N/A
Pressure29.86 "Hg
Humidity: 62%
Dew Point: 73 °F
Location of Tel AvivLocation

Past Weather in Tel Aviv — Graph

°F

Tel Aviv Temperature Yesterday

Maximum temperature yesterday: 93 °F (at 12:50 pm)
Minimum temperature yesterday: 73 °F (at 7:50 am)
Average temperature yesterday: 85 °F

High & Low Weather Summary for the Past Weeks

 TemperatureHumidityPressure
High93 °F (Sep 18, 12:20 pm)89% (Sep 18, 2:50 am)30.01 "Hg (Sep 18, 2:50 am)
Low72 °F (Sep 27, 5:20 am)43% (Sep 21, 1:20 pm)29.74 "Hg (Sep 20, 2:20 pm)
Average83 °F66%29.87 "Hg
* Reported Sep 14 1:20 pm — Sep 29 1:50 pm, Tel Aviv. Weather by CustomWeather, © 2020

Note: Actual official high and low records may vary slightly from our data, if they occured in-between our weather recording intervals... More about our weather records

Tel Aviv Weather History for the Previous 24 Hours

Scroll right to see more
 ConditionsComfort  
Time TempWeatherWind HumidityBarometerVisibility
1:50 pm
Tue, Sep 29
90 °FSunny.13 mph59%29.86 "Hg10 mi
1:20 pm90 °FPassing clouds.12 mph63%29.89 "HgN/A
12:50 pm90 °FPassing clouds.8 mph59%29.89 "HgN/A
12:20 pm90 °FSunny.5 mph59%29.89 "Hg10 mi
11:50 am91 °FSunny.2 mph49%29.92 "Hg10 mi
11:20 am90 °FSunny.3 mph52%29.92 "Hg10 mi
10:50 am88 °FSunny.3 mph59%29.95 "Hg10 mi
9:50 am84 °FPassing clouds.3 mph66%29.95 "HgN/A
9:20 am82 °FScattered clouds.2 mph70%29.95 "HgN/A
8:50 am82 °FPassing clouds.3 mph70%29.95 "HgN/A
8:20 am81 °FPassing clouds.5 mph70%29.95 "HgN/A
7:50 am79 °FPassing clouds.2 mph74%29.95 "HgN/A
7:20 am77 °FScattered clouds.2 mph79%29.95 "HgN/A
6:50 am77 °FScattered clouds.3 mph79%29.95 "HgN/A
6:20 am77 °FPassing clouds.5 mph79%29.95 "HgN/A
5:50 am77 °FPassing clouds.2 mph79%29.95 "HgN/A
5:20 am77 °FPassing clouds.2 mph79%29.95 "HgN/A
4:50 am77 °FPassing clouds.2 mph74%29.95 "HgN/A
3:50 am77 °FPassing clouds.3 mph74%29.92 "HgN/A
3:20 am77 °FPassing clouds.5 mph74%29.95 "HgN/A
2:50 am77 °FPassing clouds.6 mph79%29.95 "HgN/A
2:20 am77 °FPassing clouds.6 mph79%29.95 "HgN/A
1:50 am77 °FPassing clouds.3 mph79%29.95 "HgN/A
1:20 am79 °FPassing clouds.5 mph79%29.95 "HgN/A
12:50 am77 °FPassing clouds.3 mph79%29.95 "HgN/A
12:20 am77 °FPassing clouds.2 mph79%29.95 "HgN/A
11:50 pm
Mon, Sep 28
79 °FPassing clouds.2 mph74%29.98 "HgN/A
11:20 pm79 °FClear.2 mph79%29.98 "Hg10 mi
10:50 pm81 °FClear.3 mph74%29.95 "Hg10 mi
10:20 pm81 °FClear.2 mph79%29.95 "Hg10 mi
9:50 pm81 °FClear.3 mph79%29.95 "Hg10 mi
9:20 pm82 °FClear.3 mph74%29.95 "Hg10 mi
8:50 pm82 °FClear.6 mph74%29.95 "Hg10 mi
8:20 pm82 °FClear.5 mph74%29.95 "Hg10 mi
7:50 pm82 °FClear.8 mph74%29.95 "Hg10 mi
7:20 pm84 °FClear.7 mph66%29.95 "Hg10 mi
6:50 pm84 °FClear.8 mph62%29.95 "Hg10 mi
5:50 pm88 °FSunny.14 mph55%29.95 "Hg10 mi
4:50 pm91 °FSunny.13 mph49%29.95 "Hg10 mi
3:50 pm91 °FSunny.12 mph46%29.95 "Hg10 mi
Weather by CustomWeather, © 2020

See weather overview